STARLINK-34450, 64447

Orbit data source: Space-Track

STARLINK-34450, 64447 is a payload satellite owned by SpaceX/Seattle (US) in LEO that was launched on Wed, 18 Jun 2025 UTC via an FALCON 9 launch vehicle from the Air Force Eastern Test Range (AFETR). Payload-class satellites include a variety of spacecraft equipped with specific instruments for various scientific and technological missions. These include communications satellites like Starlink; space stations such as the ISS; scientific satellites like the Hubble; Earth observation satellites from companies like Planet Labs, Umbra, and HawkEye 360; GPS; miniature CubeSats for education and research; and military/defense satellites.

Loading next visibility...
Identifier
64447, 2025-130K
Orbit
LEO
Country
Flag of USUS
Related business
Manufacturer
SpaceX/Seattle
Mission
Operational Commercial Communications
Bus & Motor
STARLINK V2MO, Unknown motor
Mass
575 kg wet, ~530 kg dry
Launch date (UTC)
2025-06-18 (1 year ago)
Launch vehicle
FALCON 9
Launch site
Air Force Eastern Test Range (AFETR)
Object type
Payload
Rocket body
Debris
Shape & HBR
Box + 2 Pan, 17.7 m
Radar Cross Section
36.964 m², Large (>1 m²)

Expand to show TLE details & history
Last TLE update: 23 hours ago

TLE from 23 hours ago
0 STARLINK-34450
1 64447U 25130K   26170.86681414  .00017097  00000-0  58810-3 0  9999
2 64447  53.1600 334.1619 0001059  84.8518 275.2603 15.30197404 56345
Epoch: 2026-06-19T20:48Z
TLE epoch observation values (Epoch: 2026-06-19T20:48:12.741Z)
Latitude
-0.00008°
Longitude
114.01911°
Altitude
476.056 km
Speed
7.629 km/s
True Right ascension
22h 16m 38s
True Declination
0° 00' 00"
Sunlit
Object was in full shadow at epoch
Visualization orbit readout
Latitude
Unknown
Longitude
Unknown
Altitude
Unknown
Speed
Unknown
Apparent Right ascension
Unknown
Apparent Declination
Unknown
Sunlit
N/A
Visualization observer readout
Local Sidereal Time
07:12:18
Azimuth
Unknown
Elevation
Unknown
Doppler factor
Unknown
Orbital elements
Apogee altitude
476.205 km
Perigee altitude
474.753 km
Semi-major axis
6,853.616 km
Eccentricity
0.00011
Inclination
53.16°
RAAN
334.1619°
Arg. of periapsis
84.8518°
True anomaly
275.24822°
Mean anomaly
275.2603°
Eccentric anomaly
275.25426°
Mean motion
3.82528 °/min
Orbital period
94.11 mins
BSTAR
0.0005881
Loading maneuver chart data...
Computing Atmospheric mass density...
Loading historical data...
Loading historical data...
Loading historical data...
Loading historical data...
Loading historical data...
Loading historical data...
Loading historical data...

Documentation

Showing up to 5 results
|